Location: Emblem
(62.4273°N, 6.4710°E)
Time: 21:18:22
(UTC+02:00)

Vanguard 2 - Pass Details

Date: 12 February 2023
Orbit: 553 x 2927 km, 32.9° (Epoch: 27 March)

Event Time Altitude Azimuth Distance (km) Brightness Sun altitude
Rises 22:15:33 0° 228° (SW) 4,974 11.7 -34.2°
Reaches altitude 10° 22:20:35 10° 208° (SSW) 4,453 11.2 -34.6°
Enters shadow 22:21:50 12° 202° (SSW) 4,402 11.1 -34.7°
Maximum altitude 22:26:46 15° 178° (S) 4,514 - -35.1°
Drops below altitude 10° 22:34:01 10° 150° (SSE) 5,380 - -35.6°
Sets 22:41:25 0° 132° (SE) 6,677 - -36.2°
